Warwick, RI

8:23 AM EST on January 16, 2017 (GMT -0500)
Green State

Weather History for KPVD - April, 2014

Change the Weather History Date:

Wednesday, April 23, 2014

  Actual Average Record
Temperature  
Mean Temperature 52 °F 52 °F  
Max Temperature 56 °F 61 °F 85 °F (1908)
Min Temperature 47 °F 42 °F 28 °F (1989)
Degree Days  
Heating Degree Days 13 13  
Month to date heating degree days 369 393  
Since 1 July heating degree days 5595 5264  
Cooling Degree Days 0 0  
Month to date cooling degree days 0 0  
Year to date cooling degree days 0 0  
Moisture  
Dew Point 44 °F    
Average Humidity 72    
Maximum Humidity 100    
Minimum Humidity 44    
Precipitation  
Precipitation 0.59 in 0.13 in 1.60 in (2012)
Month to date precipitation 4.00 3.45  
Year to date precipitation 19.38 15.61  
Snow  
Snow 0.00 in 0.00 in T in (1986)
Month to date snowfall 0.3 0.6  
Since 1 July snowfall 43.6 33.8  
Snow Depth 0.00 in    
Sea Level Pressure  
Sea Level Pressure 29.48 in    
Wind  
Wind Speed 11 mph (WNW)    
Max Wind Speed 26 mph    
Max Gust Speed 39 mph    
Visibility 6 miles    
Events Fog , Rain , Thunderstorm    
T = Trace of Precipitation, MM = Missing Value Source: NWS Daily Summary

Daily Weather History Graph

Daily Weather History Graph

Search for Another Location

Airport or City:

Trip Planner

Search our weather history database for the weather conditions in past years. The results will help you decide how hot, cold, wet, or windy it might be!

Date:

Astronomy

Apr. 23, 2014 Rise Set
Actual Time 5:53 AM EDT 7:35 PM EDT
Civil Twilight 5:24 AM EDT 8:04 PM EDT
Nautical Twilight 4:48 AM EDT 8:40 PM EDT
Astronomical Twilight 4:10 AM EDT 9:19 PM EDT
Moon 2:28 AM EDT (4/23) 1:35 PM EDT (4/23)
Length of Visible Light 14h 40m
Length of Day
13h 41m
Waning Crescent, 35% of the Moon is Illuminated
Apr 23
Waning Crescent
Apr 29
New
May 6
First Quarter
May 14
Full
May 21
Last Quarter

Hourly Weather History & Observations

Time (EDT) Temp. Dew Point Humidity Pressure Visibility Wind Dir Wind Speed Gust Speed Precip Events Conditions
12:51 AM 50.0 °F 48.9 °F 96% 29.49 in 5.0 mi SSE 6.9 mph - N/A   Scattered Clouds
1:01 AM 50.0 °F 48.9 °F 96% 29.49 in 4.0 mi South 4.6 mph - N/A   Mostly Cloudy
1:51 AM 50.0 °F 48.9 °F 96% 29.49 in 6.0 mi Calm Calm - N/A   Mostly Cloudy
2:00 AM 50.0 °F 48.0 °F 93% 29.48 in 6.0 mi South 3.5 mph - N/A   Mostly Cloudy
2:41 AM 48.0 °F 46.9 °F 96% 29.47 in 1.5 mi Calm Calm - N/A   Clear
2:46 AM 48.2 °F 46.4 °F 93% 29.47 in 0.5 mi SSE 3.5 mph - N/A Fog Fog
2:51 AM 46.9 °F 46.0 °F 97% 29.47 in 0.5 mi South 3.5 mph - N/A Fog Fog
3:05 AM 48.9 °F 46.9 °F 93% 29.47 in 1.2 mi SSW 3.5 mph - N/A   Partly Cloudy
3:11 AM 48.0 °F 46.0 °F 93% 29.47 in 0.8 mi South 4.6 mph - N/A   Mist
3:22 AM 46.9 °F 46.0 °F 97% 29.46 in 0.8 mi South 4.6 mph - N/A   Partly Cloudy
3:38 AM 48.0 °F 46.9 °F 96% 29.46 in 1.2 mi Calm Calm - N/A   Mostly Cloudy
3:51 AM 48.9 °F 46.9 °F 93% 29.46 in 2.5 mi Calm Calm - N/A   Overcast
3:58 AM 48.9 °F 48.0 °F 97% 29.46 in 6.0 mi West 3.5 mph - N/A   Overcast
4:51 AM 48.0 °F 46.9 °F 96% 29.44 in 7.0 mi Calm Calm - N/A   Mostly Cloudy
5:51 AM 48.0 °F 46.0 °F 93% 29.44 in 6.0 mi Calm Calm - N/A   Scattered Clouds
6:51 AM 50.0 °F 48.0 °F 93% 29.45 in 7.0 mi Calm Calm - N/A   Mostly Cloudy
7:27 AM 52.0 °F 48.0 °F 86% 29.45 in 2.0 mi NW 8.1 mph - 0.08 in Rain Heavy Rain
7:47 AM 51.8 °F 48.2 °F 88% 29.46 in 5.0 mi NW 6.9 mph - 0.15 in Rain Rain
7:51 AM 51.8 °F 48.2 °F 88% 29.47 in 6.0 mi WNW 5.8 mph - N/A Rain Rain
8:51 AM 52.0 °F 46.9 °F 83% 29.47 in 10.0 mi NNW 11.5 mph - 0.00 in   Mostly Cloudy
9:51 AM 50.0 °F 45.0 °F 83% 29.47 in 3.0 mi WNW 10.4 mph - 0.00 in Rain Light Rain
10:00 AM 50.0 °F 46.4 °F 87% 29.47 in 3.0 mi West 10.4 mph - N/A Rain , Thunderstorm Thunderstorms and Rain
10:02 AM 50.0 °F 46.0 °F 86% 29.47 in 1.5 mi West 10.4 mph - 0.02 in Rain , Thunderstorm Heavy Thunderstorms and Rain
10:20 AM 48.9 °F 46.0 °F 90% 29.45 in 4.0 mi West 10.4 mph - 0.17 in Rain Rain
10:33 AM 48.9 °F 46.0 °F 90% 29.45 in 3.0 mi NW 11.5 mph - 0.18 in Rain Light Rain
10:41 AM 48.9 °F 45.0 °F 86% 29.45 in 10.0 mi NW 11.5 mph - 0.18 in   Mostly Cloudy
10:51 AM 50.0 °F 46.0 °F 86% 29.45 in 10.0 mi WNW 10.4 mph - 0.18 in   Mostly Cloudy
11:13 AM 51.1 °F 45.0 °F 80% 29.45 in 10.0 mi NW 13.8 mph 21.9 mph 0.00 in   Overcast
11:23 AM 50.0 °F 45.0 °F 83% 29.45 in 10.0 mi NW 15.0 mph - 0.00 in   Overcast
11:51 AM 48.9 °F 44.1 °F 83% 29.46 in 7.0 mi West 16.1 mph - 0.00 in Rain Light Rain
12:01 PM 48.9 °F 44.1 °F 83% 29.46 in 4.0 mi WNW 11.5 mph - 0.01 in Rain Rain
12:11 PM 48.0 °F 44.1 °F 86% 29.46 in 3.0 mi West 9.2 mph - 0.03 in Rain Rain
12:23 PM 48.0 °F 44.1 °F 86% 29.46 in 1.5 mi WNW 13.8 mph 24.2 mph 0.06 in Rain Heavy Rain
12:32 PM 48.0 °F 44.1 °F 86% 29.46 in 1.5 mi WNW 15.0 mph 21.9 mph 0.13 in Rain Heavy Rain
12:51 PM 48.0 °F 45.0 °F 89% 29.47 in 6.0 mi West 9.2 mph - 0.21 in Rain Rain
1:51 PM 50.0 °F 45.0 °F 83% 29.47 in 7.0 mi NW 13.8 mph 20.7 mph 0.04 in Rain Light Rain
2:51 PM 52.0 °F 43.0 °F 71% 29.46 in 10.0 mi NW 19.6 mph 28.8 mph 0.00 in   Overcast
3:51 PM 51.8 °F 39.2 °F 62% 29.46 in 10.0 mi NNW 23.0 mph 32.2 mph N/A   Overcast
4:51 PM 54.0 °F 37.0 °F 53% 29.47 in 10.0 mi NW 20.7 mph 35.7 mph N/A   Mostly Cloudy
5:51 PM 54.0 °F 34.0 °F 47% 29.51 in 10.0 mi NNW 15.0 mph 29.9 mph N/A   Mostly Cloudy
6:51 PM 53.1 °F 33.1 °F 47% 29.53 in 10.0 mi NNW 20.7 mph 29.9 mph N/A   Mostly Cloudy
7:51 PM 52.0 °F 32.0 °F 47% 29.56 in 10.0 mi NNW 12.7 mph 28.8 mph N/A   Overcast
8:51 PM 51.1 °F 30.9 °F 46% 29.58 in 10.0 mi NW 17.3 mph 23.0 mph N/A   Overcast
9:51 PM 50.0 °F 32.0 °F 50% 29.61 in 10.0 mi NW 13.8 mph 23.0 mph N/A   Overcast
10:51 PM 48.0 °F 30.0 °F 50% 29.63 in 10.0 mi NW 18.4 mph 32.2 mph N/A   Overcast
11:51 PM 46.9 °F 30.9 °F 54% 29.64 in 10.0 mi NW 15.0 mph 24.2 mph N/A   Overcast